Location: Mentone
(34.5413°N, 85.5351°W)
Time: 21:49:34
(UTC-06:00)

Amateur Radio Satellites - All Passes

Search period start: 08 December 2016 21:19
Search period end: 09 December 2016 21:19
Location: Mentone, 34.5413°N, 85.5351°W

Satellite Date Start Highest point End Downlink Frequencies (MHz)
Time Altitude Azimuth
DELFI C3 08 Dec 21:31:52 21:34:55 22° 264° (W) 21:38:00 145.870
Cosmos 2504 08 Dec 21:39:53 21:42:14 11° 298° (WNW) 21:44:37 435.465 / 435.565
JAS-2 08 Dec 21:42:43 21:43:33 10° 93° (E) 21:44:25 435.910
UNISAT 6 08 Dec 21:55:53 22:00:15 89° 92° (E) 22:04:31 437.425
PRISM 08 Dec 22:04:44 22:07:00 14° 293° (WNW) 22:09:16 437.425
ISS 08 Dec 22:05:12 22:08:30 71° 224° (SW) 22:11:46 145.825
HUMSAT D 08 Dec 22:08:02 22:10:55 18° 265° (W) 22:13:49 437.325/437.525
QB50P1 08 Dec 22:16:41 22:18:30 12° 93° (E) 22:20:19 145.935-145.965
TIGRISAT 08 Dec 22:25:07 22:29:13 43° 287° (WNW) 22:33:16 435.000
ANTELSAT 08 Dec 22:27:28 22:31:30 38° 287° (WNW) 22:35:28 437.575/2403.000
AISAT 08 Dec 22:27:43 22:31:43 35° 72° (ENE) 22:35:46 437.250
Cosmos 2499 08 Dec 22:31:50 22:37:55 22° 81° (E) 22:44:06 435.465 / 435.565
ESTCUBE 1 08 Dec 22:33:56 22:38:24 78° 257° (WSW) 22:42:53 437.505/2401.250
PHONESAT 2.4 08 Dec 22:36:04 22:38:43 76° 337° (NNW) 22:41:22 2401.200-2431.200
POPSAT HIP 1 08 Dec 22:37:13 22:40:32 22° 96° (E) 22:43:50 437.405
CUBEBUG 1 08 Dec 22:45:03 22:49:24 83° 77° (ENE) 22:53:48 437.445
BUGSAT 1 08 Dec 23:00:19 23:01:55 12° 92° (E) 23:03:29 437.445
VELOX 1 08 Dec 23:03:56 23:08:20 90° 88° (E) 23:12:48 145.980
GONETS M04 08 Dec 23:06:16 23:13:49 34° 86° (E) 23:21:22
DX 1 08 Dec 23:06:59 23:11:10 48° 73° (ENE) 23:15:23 434.975-435.025
UKube-1 08 Dec 23:08:09 23:12:05 36° 72° (ENE) 23:16:03 .
SPROUT 08 Dec 23:13:47 23:18:04 74° 76° (ENE) 23:22:22 437.525
50 SAT 08 Dec 23:19:11 23:22:37 62° 259° (W) 23:26:07 437.505
JAS-2 08 Dec 23:23:47 23:29:00 72° 285° (WNW) 23:34:38 435.910
NANOSAT C BR1 08 Dec 23:28:50 23:33:03 86° 287° (WNW) 23:37:14 145.865
QB50P2 08 Dec 23:37:53 23:42:03 56° 285° (WNW) 23:46:09 145.880/145.840
POLYITAN 1 08 Dec 23:38:19 23:42:29 59° 285° (WNW) 23:46:36 437.675
AO-85 08 Dec 23:44:34 23:48:41 25° 112° (ESE) 23:52:35 145.980
DUCHIFAT 1 08 Dec 23:49:29 23:53:35 51° 285° (WNW) 23:57:37 145.980
QB50P1 08 Dec 23:50:27 23:54:27 42° 287° (WNW) 23:58:24 145.935-145.965
AISAT 09 Dec 00:05:22 00:08:15 17° 266° (W) 00:11:09 437.250
PHONESAT 2.4 09 Dec 00:11:57 00:14:09 23° 353° (N) 00:16:22 2401.200-2431.200
POPSAT HIP 1 09 Dec 00:12:48 00:16:12 24° 290° (WNW) 00:19:35 437.405
SWISSCUBE 09 Dec 00:15:42 00:17:32 12° 64° (ENE) 00:19:22 437.505
BEESAT 09 Dec 00:19:31 00:21:14 12° 64° (ENE) 00:22:57 436.000
Cosmos 2499 09 Dec 00:21:34 00:30:03 70° 278° (W) 00:38:57 435.465 / 435.565
TISAT 1 09 Dec 00:24:19 00:28:32 73° 77° (ENE) 00:32:47 437.305
O/OREOS (USA 219) 09 Dec 00:31:31 00:35:35 33° 65° (ENE) 00:39:38 437.305
BUGSAT 1 09 Dec 00:33:31 00:37:28 42° 287° (WNW) 00:41:20 437.445
UKube-1 09 Dec 00:45:36 00:48:12 16° 266° (W) 00:50:49 .
DX 1 09 Dec 00:46:00 00:47:34 12° 267° (W) 00:49:09 434.975-435.025
ITUPSAT 1 09 Dec 00:47:04 00:50:48 23° 69° (ENE) 00:54:33 437.325
AUBIESAT-1 09 Dec 00:53:10 00:56:49 30° 66° (ENE) 01:00:40 437.475
GONETS M04 09 Dec 01:02:09 01:10:20 44° 283° (WNW) 01:18:32
M-CUBED/EXP-1 PRIME 09 Dec 01:07:45 01:11:46 55° 70° (ENE) 01:16:06 437.505
Oscar 19 09 Dec 01:09:48 01:15:02 82° 103° (ESE) 01:20:14 437.125/150
AO-85 09 Dec 01:24:33 01:28:59 32° 304° (NW) 01:33:09 145.980
Gurwin Techsat 1B 09 Dec 01:31:43 01:37:00 65° 102° (ESE) 01:42:15 435.225
AO-7 09 Dec 01:44:39 01:48:46 14° 92° (E) 01:52:52 29.400- 29.500
ITAMSAT 1 09 Dec 01:46:41 01:50:05 18° 94° (E) 01:53:28 435.822/435.867
PHONESAT 2.4 09 Dec 01:47:30 01:49:47 25° 10° (N) 01:52:04 2401.200-2431.200
SWISSCUBE 09 Dec 01:50:02 01:54:45 62° 259° (W) 01:59:29 437.505
BEESAT 09 Dec 01:53:42 01:58:25 64° 259° (WSW) 02:03:10 436.000
O/OREOS (USA 219) 09 Dec 02:11:43 02:14:41 18° 260° (W) 02:17:38 437.305
Cosmos 2499 09 Dec 02:22:12 02:24:50 11° 298° (WNW) 02:27:31 435.465 / 435.565
ITUPSAT 1 09 Dec 02:24:15 02:28:26 30° 262° (W) 02:32:38 437.325
AUBIESAT-1 09 Dec 02:28:08 02:31:13 20° 262° (W) 02:34:27 437.475
MOZHAYETS 4 09 Dec 02:30:45 02:35:19 71° 76° (ENE) 02:39:52
STARS 09 Dec 02:36:12 02:38:31 14° 66° (ENE) 02:40:52 437.465
SO-50 09 Dec 02:37:29 02:39:04 12° 45° (NE) 02:40:38 436.795
KKS-1 09 Dec 02:37:34 02:41:33 33° 71° (ENE) 02:45:34 437.445
CUBESAT XI-V 09 Dec 02:45:15 02:47:12 13° 66° (ENE) 02:49:09 437.345
M-CUBED/EXP-1 PRIME 09 Dec 02:46:00 02:46:37 10° 266° (W) 02:47:15 437.505
Oscar 19 09 Dec 02:52:31 02:53:36 11° 298° (WNW) 02:54:41 437.125/150
BEESAT 2 09 Dec 02:53:05 02:53:52 10° 107° (ESE) 02:54:38 435.950
Gurwin Techsat 1B 09 Dec 03:13:43 03:16:20 14° 297° (WNW) 03:18:57 435.225
PHONESAT 2.4 09 Dec 03:22:31 03:25:10 77° 200° (SSW) 03:27:45 2401.200-2431.200
ITAMSAT 1 09 Dec 03:24:48 03:29:43 45° 288° (WNW) 03:34:37 435.822/435.867
AO-7 09 Dec 03:33:58 03:42:24 88° 108° (ESE) 03:50:47 29.400- 29.500
BEESAT 3 09 Dec 03:50:54 03:54:43 54° 301° (WNW) 03:58:35 437.485
STARS 09 Dec 04:10:13 04:14:27 45° 261° (W) 04:18:43 437.465
KKS-1 09 Dec 04:15:01 04:18:08 19° 265° (W) 04:21:16 437.445
SO-50 09 Dec 04:15:34 04:20:04 77° 242° (WSW) 04:24:30 436.795
CUBESAT XI-V 09 Dec 04:19:35 04:24:03 54° 260° (W) 04:28:34 437.345
BEESAT 2 09 Dec 04:27:21 04:31:09 48° 301° (WNW) 04:35:01 435.950
BRITE-PL 09 Dec 04:34:57 04:40:26 57° 100° (E) 04:46:02 437.365/2234.400
YUBILEINY 09 Dec 04:42:01 04:49:54 35° 75° (ENE) 04:57:44 435.215
Cosmos 2491 09 Dec 05:07:39 05:14:49 29° 84° (E) 05:21:57 435.465 / 435.565
RS-15 09 Dec 05:10:09 05:20:16 37° 105° (ESE) 05:30:46 29.354- 29.394
HORYU 2 09 Dec 05:22:03 05:26:27 64° 285° (WNW) 05:30:47 437.375
CUTE-I 09 Dec 05:23:16 05:28:01 32° 98° (E) 05:32:44 437.470
DOVE 4 09 Dec 05:25:26 05:29:58 30° 95° (E) 05:34:20 437.250
AO-7 09 Dec 05:28:46 05:34:04 19° 305° (NW) 05:39:22 29.400- 29.500
GOMX 1 09 Dec 05:31:37 05:37:09 86° 102° (ESE) 05:42:34 467.674
NOAA 15 09 Dec 05:34:35 05:39:41 47° 100° (E) 05:44:45 137.62
Cosmos 2504 09 Dec 05:36:41 05:44:36 38° 75° (ENE) 05:52:01 435.465 / 435.565
AIST 2 09 Dec 05:47:42 05:50:53 22° 111° (ESE) 05:54:07 435.215
Cubesat XI-IV 09 Dec 05:49:59 05:55:15 60° 101° (E) 06:00:29 437.490
LilacSat-2 09 Dec 06:00:37 06:04:23 74° 282° (WNW) 06:08:07 437.200
NOAA 18 09 Dec 06:01:08 06:06:28 46° 100° (E) 06:11:42 137.9125
STRAND 1 09 Dec 06:04:13 06:09:16 61° 74° (ENE) 06:14:19 437.568
HO-68 09 Dec 06:10:01 06:14:34 18° 93° (E) 06:19:05 435.675
BRITE-PL 09 Dec 06:14:46 06:18:24 18° 293° (WNW) 06:22:05 437.365/2234.400
CINEMA 3 09 Dec 06:19:14 06:22:57 23° 94° (E) 06:26:31 145.822/145.860
AIST 1 09 Dec 06:30:27 06:34:49 61° 266° (W) 06:39:07
YUBILEINY 09 Dec 06:38:31 06:46:43 45° 272° (W) 06:54:55 435.215
CUTE 1.7 + AOD 2 09 Dec 07:02:38 07:06:37 41° 98° (E) 07:10:37 437.475
Cosmos 2491 09 Dec 07:02:39 07:11:07 52° 281° (W) 07:19:37 435.465 / 435.565
DOVE 4 09 Dec 07:03:05 07:07:29 28° 291° (WNW) 07:11:44 437.250
CUTE-I 09 Dec 07:03:31 07:07:53 26° 292° (WNW) 07:12:14 437.470
AAUSAT CUBESAT 2 09 Dec 07:10:22 07:12:53 16° 94° (E) 07:15:25 437.432
GOMX 1 09 Dec 07:12:46 07:14:23 11° 297° (WNW) 07:16:00 467.674
PRISM 09 Dec 07:15:00 07:17:43 17° 68° (ENE) 07:20:26 437.425
NOAA 15 09 Dec 07:15:28 07:19:03 19° 294° (WNW) 07:22:37 137.62
RS-15 09 Dec 07:20:31 07:32:02 60° 305° (NW) 07:44:10 29.354- 29.394
CANX-2 09 Dec 07:21:13 07:25:27 85° 99° (E) 07:29:41 2200.000
AIST 2 09 Dec 07:25:43 07:29:12 26° 306° (NW) 07:32:44 435.215
Cosmos 2504 09 Dec 07:30:03 07:37:53 40° 273° (W) 07:45:17 435.465 / 435.565
Cubesat XI-IV 09 Dec 07:31:49 07:34:46 15° 296° (WNW) 07:37:41 437.490
SEEDS 09 Dec 07:39:13 07:43:25 78° 102° (ESE) 07:47:37 437.485
NOAA 18 09 Dec 07:42:45 07:46:43 21° 295° (WNW) 07:50:39 137.9125
COMPASS 1 09 Dec 07:42:54 07:47:00 54° 100° (E) 07:51:04 437.405
STRAND 1 09 Dec 07:46:36 07:48:46 13° 268° (W) 07:50:57 437.568
CUBEBUG 2 09 Dec 07:49:37 07:53:51 56° 99° (E) 07:57:58 437.445
Oscar 11 09 Dec 07:53:52 07:56:58 19° 95° (E) 08:00:04 145.826/435.025
HO-68 09 Dec 07:55:36 08:02:47 72° 288° (WNW) 08:09:55 435.675
CINEMA 3 09 Dec 07:56:03 08:00:01 28° 290° (WNW) 08:03:50 145.822/145.860
UWE-3 09 Dec 08:24:29 08:28:45 88° 284° (WNW) 08:32:54 435.000/436.395/437.385
DANDE 09 Dec 08:35:33 08:38:50 20° 97° (E) 08:41:35 436.750
CUTE 1.7 + AOD 2 09 Dec 08:39:56 08:42:05 14° 292° (WNW) 08:44:13 437.475
AAUSAT CUBESAT 2 09 Dec 08:44:41 08:48:24 33° 287° (WNW) 08:52:07 437.432
JUGNU 09 Dec 08:46:16 08:49:10 14° 167° (SSE) 08:52:05 437.505
PRISM 09 Dec 08:49:11 08:52:45 29° 263° (W) 08:56:20 437.425
UNISAT 6 09 Dec 08:50:34 08:55:05 50° 74° (ENE) 08:59:35 437.425
CUSAT 1 09 Dec 08:56:51 08:59:42 32° 279° (W) 09:02:11 437.405
ZACube-1 09 Dec 08:57:30 09:01:37 59° 285° (WNW) 09:05:41 437.345
FUNcube-1 09 Dec 09:03:06 09:07:11 55° 285° (WNW) 09:11:12 145.935
PCSat 09 Dec 09:08:47 09:13:01 24° 106° (ESE) 09:17:16 145.827
DELFI C3 09 Dec 09:11:27 09:15:22 56° 100° (E) 09:19:17 145.870
TIGRISAT 09 Dec 09:19:12 09:23:54 82° 258° (WSW) 09:28:34 435.000
COMPASS 1 09 Dec 09:21:19 09:22:01 10° 294° (WNW) 09:22:44 437.405
ANTELSAT 09 Dec 09:21:40 09:26:21 73° 258° (WSW) 09:31:00 437.575/2403.000
GONETS M04 09 Dec 09:23:00 09:26:30 13° 64° (ENE) 09:29:59
POPSAT HIP 1 09 Dec 09:28:04 09:29:33 12° 66° (ENE) 09:31:01 437.405
CUBEBUG 2 09 Dec 09:29:10 09:29:53 10° 295° (WNW) 09:30:37 437.445
Oscar 11 09 Dec 09:29:22 09:33:04 29° 288° (WNW) 09:36:47 145.826/435.025
JAS-2 09 Dec 09:32:34 09:38:06 32° 71° (ENE) 09:43:08 435.910
RS-15 09 Dec 09:39:53 09:47:56 19° 333° (NNW) 09:56:10 29.354- 29.394
HO-68 09 Dec 09:47:11 09:49:13 11° 305° (NW) 09:51:16 435.675
HUMSAT D 09 Dec 09:53:11 09:57:17 88° 281° (WNW) 10:01:21 437.325/437.525
AO-85 09 Dec 09:59:03 10:02:58 82° 61° (ENE) 10:06:50 145.980
NANOSAT C BR1 09 Dec 10:17:09 10:21:10 42° 74° (ENE) 10:25:12 145.865
DANDE 09 Dec 10:18:12 10:21:21 19° 279° (W) 10:24:01 436.750
Cosmos 2499 09 Dec 10:18:24 10:26:00 36° 74° (ENE) 10:33:03 435.465 / 435.565
QB50P2 09 Dec 10:26:25 10:30:39 65° 75° (ENE) 10:34:54 145.880/145.840
POLYITAN 1 09 Dec 10:26:50 10:31:04 61° 76° (ENE) 10:35:19 437.675
UNISAT 6 09 Dec 10:29:47 10:31:59 13° 267° (W) 10:34:11 437.425
ESTCUBE 1 09 Dec 10:30:13 10:34:08 28° 97° (E) 10:38:01 437.505/2401.250
JUGNU 09 Dec 10:33:23 10:37:29 19° 177° (S) 10:41:35 437.505
SRMSAT 09 Dec 10:33:49 10:34:56 10° 164° (SSE) 10:36:02 437.500
DUCHIFAT 1 09 Dec 10:37:10 10:41:24 69° 75° (ENE) 10:45:38 145.980
CUBEBUG 1 09 Dec 10:37:55 10:41:12 20° 95° (E) 10:44:27 437.445
QB50P1 09 Dec 10:38:36 10:42:53 85° 73° (ENE) 10:47:10 145.935-145.965
50 SAT 09 Dec 10:50:32 10:51:44 11° 93° (E) 10:52:56 437.505
PCSat 09 Dec 10:51:06 10:56:08 39° 302° (WNW) 11:01:12 145.827
VELOX 1 09 Dec 10:58:09 11:01:38 22° 96° (E) 11:05:05 145.980
POPSAT HIP 1 09 Dec 11:00:39 11:04:49 52° 260° (W) 11:09:01 437.405
DX 1 09 Dec 11:01:06 11:02:19 11° 92° (E) 11:03:32 434.975-435.025
SPROUT 09 Dec 11:04:19 11:07:01 16° 94° (E) 11:09:41 437.525
GONETS M04 09 Dec 11:15:56 11:24:42 79° 83° (E) 11:33:28
JAS-2 09 Dec 11:17:23 11:23:05 32° 261° (W) 11:28:16 435.910
BUGSAT 1 09 Dec 11:18:52 11:23:05 78° 75° (ENE) 11:27:21 437.445
NANOSAT C BR1 09 Dec 11:55:02 11:57:02 13° 267° (W) 11:59:02 145.865
AISAT 09 Dec 11:57:03 12:01:31 69° 284° (WNW) 12:05:56 437.250
RS-15 09 Dec 12:02:07 12:07:56 14° 11° (N) 12:13:44 29.354- 29.394
ESTCUBE 1 09 Dec 12:07:15 12:10:44 22° 291° (WNW) 12:14:14 437.505/2401.250
BEESAT 3 09 Dec 12:11:18 12:14:41 26° 54° (NE) 12:18:04 437.485
Cosmos 2499 09 Dec 12:11:28 12:19:03 40° 273° (W) 12:26:08 435.465 / 435.565
TISAT 1 09 Dec 12:13:10 12:15:29 14° 94° (E) 12:17:47 437.305
CUBEBUG 1 09 Dec 12:13:35 12:17:27 30° 289° (WNW) 12:21:17 437.445
SRMSAT 09 Dec 12:19:32 12:23:21 18° 174° (S) 12:27:11 437.500
50 SAT 09 Dec 12:21:53 12:25:06 32° 286° (WNW) 12:28:18 437.505
JUGNU 09 Dec 12:22:04 12:25:49 17° 188° (S) 12:29:32 437.505
Oscar 19 09 Dec 12:23:02 12:28:09 82° 75° (ENE) 12:33:18 437.125/150
UKube-1 09 Dec 12:34:02 12:38:21 74° 284° (WNW) 12:42:40 .
VELOX 1 09 Dec 12:34:14 12:38:01 28° 290° (WNW) 12:41:48 145.980
DX 1 09 Dec 12:34:29 12:38:45 52° 286° (WNW) 12:43:00 434.975-435.025
SPROUT 09 Dec 12:39:07 12:43:00 34° 288° (WNW) 12:46:50 437.525
AO-7 09 Dec 12:40:29 12:45:23 17° 54° (NE) 12:50:16 29.400- 29.500
BEESAT 2 09 Dec 12:48:26 12:52:00 30° 55° (NE) 12:55:34 435.950
Gurwin Techsat 1B 09 Dec 12:49:10 12:54:27 73° 75° (ENE) 12:59:46 435.225
ITAMSAT 1 09 Dec 13:01:19 13:05:04 20° 66° (ENE) 13:08:47 435.822/435.867
ISS 09 Dec 13:07:16 13:09:38 19° 129° (SE) 13:12:01 145.825
GONETS M04 09 Dec 13:15:12 13:20:24 18° 280° (W) 13:25:39
TISAT 1 09 Dec 13:47:20 13:51:13 37° 287° (WNW) 13:55:03 437.305
BEESAT 3 09 Dec 13:49:07 13:52:09 21° 249° (WSW) 13:55:09 437.485
SWISSCUBE 09 Dec 13:53:43 13:58:14 43° 99° (E) 14:02:44 437.505
BEESAT 09 Dec 13:57:22 14:01:52 42° 99° (E) 14:06:21 436.000
SRMSAT 09 Dec 14:07:50 14:11:50 19° 184° (S) 14:15:49 437.500
AUBIESAT-1 09 Dec 14:08:57 14:13:10 38° 102° (ESE) 14:17:07 437.475
RS-15 09 Dec 14:14:56 14:26:00 36° 44° (NE) 14:36:41 29.354- 29.394
M-CUBED/EXP-1 PRIME 09 Dec 14:24:17 14:28:54 76° 106° (ESE) 14:33:14 437.505
BEESAT 2 09 Dec 14:26:44 14:29:34 19° 250° (WSW) 14:32:23 435.950
ITUPSAT 1 09 Dec 14:27:26 14:32:13 89° 117° (ESE) 14:36:58 437.325
AO-7 09 Dec 14:28:39 14:36:57 87° 72° (ENE) 14:45:20 29.400- 29.500
MOZHAYETS 4 09 Dec 14:29:59 14:33:28 21° 95° (E) 14:36:56
Gurwin Techsat 1B 09 Dec 14:33:35 14:34:51 11° 269° (W) 14:36:08 435.225
ITAMSAT 1 09 Dec 14:39:14 14:44:10 42° 260° (W) 14:49:07 435.822/435.867
O/OREOS (USA 219) 09 Dec 14:39:40 14:44:14 80° 107° (ESE) 14:48:47 437.305
ISS 09 Dec 14:42:58 14:45:57 32° 323° (NW) 14:48:57 145.825
SWISSCUBE 09 Dec 15:32:40 15:35:39 17° 294° (WNW) 15:38:37 437.505
BEESAT 09 Dec 15:36:13 15:39:16 17° 294° (WNW) 15:42:19 436.000
BRITE-PL 09 Dec 15:43:00 15:46:59 37° 72° (ENE) 15:51:15 437.365/2234.400
AUBIESAT-1 09 Dec 15:44:11 15:47:10 18° 298° (WNW) 15:50:04 437.475
AIST 2 09 Dec 15:49:22 15:53:34 66° 59° (ENE) 15:57:46 435.215
SRMSAT 09 Dec 15:57:50 16:00:16 13° 194° (SSW) 16:02:42 437.500
M-CUBED/EXP-1 PRIME 09 Dec 16:02:04 16:02:36 10° 302° (WNW) 16:03:10 437.505
STARS 09 Dec 16:02:57 16:07:07 40° 99° (E) 16:11:15 437.465
MOZHAYETS 4 09 Dec 16:06:39 16:10:35 29° 289° (WNW) 16:14:32
KKS-1 09 Dec 16:07:47 16:12:15 74° 285° (WNW) 16:16:41 437.445
HORYU 2 09 Dec 16:16:03 16:20:32 74° 75° (ENE) 16:25:00 437.375
CUBESAT XI-V 09 Dec 16:19:24 16:23:55 47° 99° (E) 16:28:27 437.345
AO-7 09 Dec 16:25:58 16:30:31 16° 267° (W) 16:35:06 29.400- 29.500
RS-15 09 Dec 16:27:14 16:39:26 70° 247° (WSW) 16:51:08 29.354- 29.394
DOVE 4 09 Dec 16:27:34 16:31:06 20° 67° (ENE) 16:34:46 437.250
GOMX 1 09 Dec 16:36:02 16:40:32 59° 75° (ENE) 16:45:25 467.674
LilacSat-2 09 Dec 16:39:06 16:42:30 30° 73° (ENE) 16:45:52 437.200
CUTE-I 09 Dec 16:41:31 16:46:27 39° 71° (ENE) 16:51:23 437.470
NOAA 15 09 Dec 16:51:08 16:56:12 53° 73° (ENE) 17:01:18 137.62
Cubesat XI-IV 09 Dec 17:08:19 17:13:39 70° 74° (ENE) 17:19:01 437.490
Cosmos 2491 09 Dec 17:17:00 17:25:42 68° 82° (E) 17:34:21 435.465 / 435.565
CINEMA 3 09 Dec 17:17:32 17:20:39 17° 67° (ENE) 17:23:47 145.822/145.860
BRITE-PL 09 Dec 17:23:07 17:25:41 15° 268° (W) 17:28:21 437.365/2234.400
NOAA 18 09 Dec 17:23:46 17:29:13 63° 73° (ENE) 17:34:43 137.9125
YUBILEINY 09 Dec 17:38:16 17:46:21 45° 88° (E) 17:54:28 435.215
STARS 09 Dec 17:40:31 17:43:05 15° 293° (WNW) 17:45:38 437.465
CUTE 1.7 + AOD 2 09 Dec 17:52:36 17:55:35 19° 69° (ENE) 17:58:32 437.475
CUBESAT XI-V 09 Dec 17:58:16 18:00:51 15° 293° (WNW) 18:03:27 437.345
PCSat 09 Dec 18:01:49 18:03:08 11° 46° (NE) 18:04:27 145.827
DOVE 4 09 Dec 18:03:56 18:08:25 39° 263° (W) 18:13:10 437.250
Cosmos 2504 09 Dec 18:09:56 18:17:13 34° 85° (E) 18:24:49 435.465 / 435.565
CANX-2 09 Dec 18:10:28 18:14:19 36° 73° (ENE) 18:18:11 2200.000
LilacSat-2 09 Dec 18:14:37 18:16:48 15° 266° (W) 18:18:58 437.200
GOMX 1 09 Dec 18:17:46 18:19:06 11° 271° (W) 18:20:27 467.674
STRAND 1 09 Dec 18:18:46 18:23:05 27° 97° (E) 18:27:23 437.568
HO-68 09 Dec 18:19:48 18:26:48 61° 71° (ENE) 18:33:51 435.675
CUTE-I 09 Dec 18:22:26 18:26:32 22° 265° (W) 18:30:41 437.470
SO-50 09 Dec 18:25:45 18:30:32 80° 118° (ESE) 18:35:16 436.795
SEEDS 09 Dec 18:27:30 18:31:12 32° 73° (ENE) 18:34:55 437.485
COMPASS 1 09 Dec 18:30:39 18:33:52 22° 71° (ENE) 18:37:05 437.405
NOAA 15 09 Dec 18:33:16 18:36:15 15° 267° (W) 18:39:14 137.62
CUBEBUG 2 09 Dec 18:43:42 18:47:54 32° 72° (ENE) 18:52:05 437.445
RS-15 09 Dec 18:45:34 18:49:31 12° 265° (W) 18:53:26 29.354- 29.394
Oscar 11 09 Dec 18:48:07 18:48:25 10° 65° (ENE) 18:48:43 145.826/435.025
Cubesat XI-IV 09 Dec 18:52:17 18:54:08 12° 269° (W) 18:55:59 437.490
CINEMA 3 09 Dec 18:52:32 18:57:18 48° 261° (W) 19:02:10 145.822/145.860
AIST 1 09 Dec 18:55:36 18:59:54 88° 278° (W) 19:04:17
NOAA 18 09 Dec 19:07:25 19:10:14 14° 267° (W) 19:13:03 137.9125
Cosmos 2491 09 Dec 19:15:36 19:21:38 21° 278° (W) 19:27:40 435.465 / 435.565
UWE-3 09 Dec 19:17:13 19:21:41 48° 74° (ENE) 19:26:06 435.000/436.395/437.385
CUTE 1.7 + AOD 2 09 Dec 19:27:32 19:31:11 28° 263° (W) 19:34:50 437.475
CUSAT 1 09 Dec 19:28:48 19:33:05 72° 82° (E) 19:38:45 437.405
AAUSAT CUBESAT 2 09 Dec 19:30:32 19:34:38 84° 261° (W) 19:38:45 437.432
YUBILEINY 09 Dec 19:35:30 19:43:11 34° 286° (WNW) 19:50:58 435.215
PCSat 09 Dec 19:41:57 19:47:23 79° 64° (ENE) 19:52:48 145.827
CANX-2 09 Dec 19:47:55 19:50:15 15° 267° (W) 19:52:36 2200.000
ZACube-1 09 Dec 19:48:55 19:53:26 66° 76° (ENE) 19:57:52 437.345
FUNcube-1 09 Dec 19:54:12 19:58:42 70° 76° (ENE) 20:03:08 145.935
DELFI C3 09 Dec 19:54:24 19:57:13 19° 70° (ENE) 20:00:03 145.870
STRAND 1 09 Dec 19:57:50 20:02:10 29° 291° (WNW) 20:06:29 437.568
Cosmos 2504 09 Dec 20:02:19 20:10:15 45° 283° (WNW) 20:18:38 435.465 / 435.565
SEEDS 09 Dec 20:04:20 20:06:56 16° 266° (W) 20:09:32 437.485
COMPASS 1 09 Dec 20:06:01 20:09:17 23° 264° (W) 20:12:34 437.405
SO-50 09 Dec 20:09:36 20:11:33 12° 314° (NW) 20:13:30 436.795
HO-68 09 Dec 20:09:40 20:14:52 21° 266° (W) 20:20:06 435.675
Oscar 11 09 Dec 20:19:44 20:23:59 60° 260° (W) 20:28:15 145.826/435.025
CUBEBUG 2 09 Dec 20:20:54 20:24:29 21° 265° (W) 20:28:05 437.445
PRISM 09 Dec 20:33:23 20:37:23 44° 100° (E) 20:41:22 437.425
HUMSAT D 09 Dec 20:40:43 20:44:36 38° 74° (ENE) 20:48:28 437.325/437.525
UNISAT 6 09 Dec 20:47:51 20:49:45 13° 92° (E) 20:51:37 437.425
UWE-3 09 Dec 20:55:59 20:58:18 14° 267° (W) 21:00:37 435.000/436.395/437.385
DANDE 09 Dec 20:56:08 20:59:14 41° 263° (W) 21:03:12 436.750
PHONESAT 2.4 09 Dec 21:11:52 21:14:16 30° 149° (SSE) 21:16:40 2401.200-2431.200
